Aérodrome :
LOGIN :

S'inscrire | Disclaimer

   EN    FR    IT 

 










Légende :    VFR   VFR Marginal   IFR   IFR Intensif   IFR Très Intensif
Visi : 
Plafond : 
>= 8 km
>= 3000ft
5 à 8 km
1000 à 3000 ft
1500m à 5 km
500 à 1000 ft
800 à 1500m
200 à 500 ft
< 800m
< 200 ft
Symboles :   Orages  Brouillard  Fortes neiges  Fortes précipitations  Vent > 20 kt
SIGMETs :   Divers  Orages  Givrage  Turbulence  Onde Orograph.  Cendres Volcan.







- Altitude de l'aérodrome : 1411 ft
- Code IATA : ZHI


LSZG - Grenchen

DERNIER METAR :
  • 212050Z AUTO 00000KT CAVOK 11/06 Q1013

METARs EXPIRÉS :
  • 212020Z AUTO 00000KT CAVOK 12/06 Q1013
  • 211950Z AUTO 00000KT CAVOK 12/07 Q1013
  • 211920Z AUTO 23002KT CAVOK 13/06 Q1013
  • 211850Z 08001KT CAVOK 16/05 Q1013 NOSIG
  • 211820Z 07003KT CAVOK 19/02 Q1013 NOSIG

TAF TAF LSZG
Valide du 21 à 15h jusqu'au 22 à 00h UTC


211425Z 2115/2124 26003KT CAVOK
ATIS : +41 32 396 96 33
Pas de NOTAMs connus pour ce terrain.



MET'MAP, la Météo Aéronautique d'un coup d'oeil ! - Copyright ORBIFLY Décembre 2007 - Disclaimer

ORBIFLY MET'MAP TEAM :

Programmation & Développement : Alexandra Zaïnal
Conception & Développement : Baudouin d'Aumeries
Co-Programmation & Développement : Marc-Olivier Méhu
Soutien technique & logistique : Manuel Goepfert

Contact : metmap@orbifly.com




SOURCES & CREDITS :

   NOAA